• In Hungary
  • List of Countries
  • For 7 days
  • Water Temperature
  • Satellite Maps
  • Weather Map
  • News
  • Weather Widgets
  • user-avatar
    Login

    Hourly Weather Artashat

    Today, 20 November, Monday

    Time Temperature Precipitation Wind Pressure Humidity
    00:00 +4°C° 0.1 mm 2 mps 601 mmHg 49%
    01:00 +3°C° 0 mm 2 mps 601 mmHg 51%
    02:00 +3°C° 0 mm 2 mps 601 mmHg 53%
    03:00 +2°C° 0 mm 2 mps 600 mmHg 57%
    04:00 +2°C° 0 mm 2 mps 600 mmHg 59%
    05:00 +1°C° 0 mm 2 mps 600 mmHg 61%
    06:00 +1°C° 0 mm 2 mps 600 mmHg 63%
    07:00 +2°C° 0 mm 2 mps 600 mmHg 59%
    08:00 +3°C° 0 mm 2 mps 601 mmHg 55%
    09:00 +5°C° 0 mm 2 mps 601 mmHg 50%
    10:00 +6°C° 0 mm 2 mps 601 mmHg 47%
    11:00 +7°C° 0 mm 2 mps 601 mmHg 44%
    12:00 +7°C° 0 mm 2 mps 601 mmHg 41%
    13:00 +7°C° 0 mm 2 mps 601 mmHg 41%
    14:00 +8°C° 0 mm 2 mps 601 mmHg 41%
    15:00 +8°C° 0 mm 2 mps 600 mmHg 40%
    16:00 +7°C° 0 mm 2 mps 600 mmHg 44%
    17:00 +5°C° 0 mm 2 mps 599 mmHg 48%
    18:00 +4°C° 0 mm 2 mps 599 mmHg 52%
    19:00 +4°C° 0 mm 2 mps 599 mmHg 54%
    20:00 +3°C° 0 mm 2 mps 598 mmHg 56%
    21:00 +3°C° 0 mm 2 mps 598 mmHg 57%
    22:00 +3°C° 0 mm 2 mps 598 mmHg 59%
    23:00 +2°C° 0 mm 2 mps 598 mmHg 60%

    Tomorrow, 21 November, Tuesday

    Time Temperature Precipitation Wind Pressure Humidity
    00:00 +2°C° 0 mm 2 mps 597 mmHg 61%
    01:00 +2°C° 0 mm 2 mps 597 mmHg 62%
    02:00 +2°C° 0 mm 2 mps 597 mmHg 63%
    03:00 +2°C° 0 mm 2 mps 596 mmHg 64%
    04:00 +1°C° 0 mm 2 mps 596 mmHg 64%
    05:00 +1°C° 0 mm 2 mps 596 mmHg 65%
    06:00 +1°C° 0 mm 2 mps 595 mmHg 65%
    07:00 +2°C° 0 mm 2 mps 596 mmHg 61%
    08:00 +4°C° 0 mm 2 mps 596 mmHg 57%
    09:00 +5°C° 0 mm 2 mps 596 mmHg 52%
    10:00 +5°C° 0.1 mm 3 mps 596 mmHg 52%
    11:00 +5°C° 0.1 mm 3 mps 596 mmHg 51%
    12:00 +6°C° 0.1 mm 4 mps 596 mmHg 50%
    13:00 +6°C° 0 mm 4 mps 596 mmHg 51%
    14:00 +6°C° 0 mm 4 mps 596 mmHg 53%
    15:00 +6°C° 0 mm 4 mps 595 mmHg 54%
    16:00 +5°C° 0 mm 3 mps 595 mmHg 60%
    17:00 +4°C° 0 mm 3 mps 594 mmHg 66%
    18:00 +3°C° 0 mm 3 mps 593 mmHg 72%
    19:00 +2°C° 0 mm 3 mps 593 mmHg 72%
    20:00 +2°C° 0 mm 3 mps 593 mmHg 73%
    21:00 +2°C° 0 mm 3 mps 593 mmHg 73%
    22:00 +3°C° 0 mm 2 mps 593 mmHg 73%
    23:00 +2°C° 0 mm 2 mps 592 mmHg 74%

    Day after tomorrow, 22 November, Wednesday

    Time Temperature Precipitation Wind Pressure Humidity
    00:00 +2°C° 0 mm 2 mps 592 mmHg 74%
    01:00 +2°C° 0 mm 2 mps 592 mmHg 75%
    02:00 +1°C° 0 mm 3 mps 592 mmHg 75%
    03:00 +1°C° 0 mm 3 mps 592 mmHg 76%
    04:00 0°C° 0.2 mm 3 mps 592 mmHg 77%
    05:00 0°C° 0.2 mm 3 mps 592 mmHg 78%
    06:00 0°C° 0.2 mm 3 mps 592 mmHg 79%
    07:00 +1°C° 0.7 mm 2 mps 592 mmHg 77%
    08:00 +1°C° 0.7 mm 2 mps 592 mmHg 76%
    09:00 +1°C° 0.7 mm 2 mps 592 mmHg 74%
    10:00 +1°C° 0.4 mm 2 mps 592 mmHg 71%
    11:00 +1°C° 0.4 mm 2 mps 592 mmHg 68%
    12:00 +2°C° 0.4 mm 2 mps 592 mmHg 64%
    13:00 +2°C° 0.3 mm 2 mps 593 mmHg 61%
    14:00 +2°C° 0.3 mm 2 mps 593 mmHg 57%
    15:00 +1°C° 0.3 mm 3 mps 593 mmHg 54%
    16:00 0°C° 0.1 mm 3 mps 593 mmHg 58%
    17:00 -1°C° 0.1 mm 3 mps 593 mmHg 62%
    18:00 -2°C° 0.1 mm 3 mps 594 mmHg 66%
    19:00 -2°C° 0 mm 3 mps 594 mmHg 67%
    20:00 -3°C° 0 mm 2 mps 594 mmHg 68%
    21:00 -4°C° 0 mm 2 mps 594 mmHg 69%
    22:00 -4°C° 0.1 mm 2 mps 594 mmHg 68%
    23:00 -4°C° 0.1 mm 2 mps 594 mmHg 68%

    23 November, Thursday

    Time Temperature Precipitation Wind Pressure Humidity
    00:00 -2°C° 0.1 mm 1 mps 594 mmHg 68%
    01:00 -2°C° 0.1 mm 1 mps 594 mmHg 67%
    02:00 -3°C° 0.1 mm 1 mps 594 mmHg 66%
    03:00 -3°C° 0.1 mm 1 mps 595 mmHg 66%
    04:00 -3°C° 0 mm 1 mps 594 mmHg 67%
    05:00 -4°C° 0 mm 1 mps 594 mmHg 68%
    06:00 -6°C° 0 mm 1 mps 594 mmHg 69%
    07:00 -4°C° 0 mm 1 mps 595 mmHg 66%
    08:00 -4°C° 0 mm 1 mps 595 mmHg 63%
    09:00 -5°C° 0 mm 2 mps 596 mmHg 60%
    10:00 -5°C° 0.1 mm 2 mps 596 mmHg 58%
    11:00 -5°C° 0.1 mm 2 mps 596 mmHg 57%
    12:00 -4°C° 0.1 mm 2 mps 596 mmHg 56%
    13:00 -4°C° 0.1 mm 2 mps 596 mmHg 55%
    14:00 -4°C° 0.1 mm 2 mps 596 mmHg 54%
    15:00 -4°C° 0.1 mm 2 mps 596 mmHg 53%
    16:00 -5°C° 0 mm 2 mps 596 mmHg 56%
    17:00 -6°C° 0 mm 2 mps 596 mmHg 60%
    18:00 -4°C° 0 mm 1 mps 596 mmHg 63%
    19:00 -6°C° 0.1 mm 1 mps 596 mmHg 63%
    20:00 -6°C° 0.1 mm 1 mps 597 mmHg 64%
    21:00 -6°C° 0.1 mm 1 mps 597 mmHg 65%
    22:00 -6°C° 0 mm 1 mps 597 mmHg 66%
    23:00 -7°C° 0 mm 1 mps 597 mmHg 67%

    24 November, Friday

    Time Temperature Precipitation Wind Pressure Humidity
    00:00 -7°C° 0 mm 1 mps 597 mmHg 68%
    01:00 -7°C° 0 mm 1 mps 597 mmHg 68%
    02:00 -8°C° 0 mm 1 mps 597 mmHg 69%
    03:00 -8°C° 0 mm 1 mps 597 mmHg 69%
    04:00 -8°C° 0 mm 1 mps 597 mmHg 69%
    05:00 -9°C° 0 mm 1 mps 597 mmHg 68%
    06:00 -9°C° 0 mm 1 mps 597 mmHg 68%
    07:00 -8°C° 0 mm 1 mps 598 mmHg 66%
    08:00 -7°C° 0 mm 1 mps 598 mmHg 63%
    09:00 -7°C° 0 mm 1 mps 599 mmHg 61%
    10:00 -6°C° 0 mm 1 mps 599 mmHg 59%
    11:00 -6°C° 0 mm 1 mps 598 mmHg 57%
    12:00 -4°C° 0 mm 1 mps 598 mmHg 55%
    13:00 -4°C° 0 mm 1 mps 598 mmHg 55%
    14:00 -4°C° 0 mm 1 mps 598 mmHg 54%
    15:00 -4°C° 0 mm 1 mps 598 mmHg 54%
    16:00 -4°C° 0 mm 1 mps 598 mmHg 56%
    17:00 -6°C° 0 mm 1 mps 598 mmHg 58%
    18:00 -7°C° 0 mm 1 mps 598 mmHg 61%
    19:00 -7°C° 0 mm 1 mps 598 mmHg 61%
    20:00 -7°C° 0 mm 1 mps 599 mmHg 61%
    21:00 -7°C° 0 mm 1 mps 599 mmHg 62%
    22:00 -8°C° 0 mm 1 mps 599 mmHg 62%
    23:00 -8°C° 0 mm 1 mps 599 mmHg 62%

    25 November, Saturday

    Time Temperature Precipitation Wind Pressure Humidity
    00:00 -9°C° 0 mm 1 mps 599 mmHg 62%
    01:00 -9°C° 0 mm 1 mps 599 mmHg 62%
    02:00 -10°C° 0 mm 1 mps 599 mmHg 62%
    03:00 -10°C° 0 mm 1 mps 599 mmHg 61%
    04:00 -10°C° 0 mm 1 mps 600 mmHg 61%
    05:00 -10°C° 0 mm 1 mps 600 mmHg 61%
    06:00 -10°C° 0 mm 1 mps 600 mmHg 61%
    07:00 -10°C° 0 mm 1 mps 601 mmHg 58%
    08:00 -9°C° 0 mm 1 mps 602 mmHg 55%
    09:00 -8°C° 0 mm 1 mps 602 mmHg 52%
    10:00 -7°C° 0 mm 1 mps 602 mmHg 49%
    11:00 -6°C° 0 mm 1 mps 602 mmHg 46%
    12:00 -4°C° 0 mm 1 mps 602 mmHg 43%
    13:00 -4°C° 0 mm 1 mps 602 mmHg 43%
    14:00 -4°C° 0 mm 1 mps 602 mmHg 43%
    15:00 -4°C° 0 mm 1 mps 602 mmHg 43%
    16:00 -6°C° 0 mm 1 mps 602 mmHg 46%
    17:00 -7°C° 0 mm 1 mps 602 mmHg 50%
    18:00 -8°C° 0 mm 1 mps 602 mmHg 53%
    19:00 -8°C° 0 mm 1 mps 603 mmHg 53%
    20:00 -9°C° 0 mm 1 mps 603 mmHg 53%
    21:00 -9°C° 0 mm 1 mps 603 mmHg 52%
    22:00 -9°C° 0 mm 1 mps 603 mmHg 52%
    23:00 -9°C° 0 mm 1 mps 603 mmHg 52%
    Show more